Regional Weather Roundup
Issued by NWS

Home | Current Version | Previous Version | Graphics & Text | Print | Product List | Glossary On
Versions: 1 2 3 4 5 6 7 8 9 10 11 12 13 14 15 16 17 18 19 20 21 22 23 24 25 26 27 28 29 30 31 32 33 34 35 36 37 38 39 40 41 42 43 44 45 46 47 48 49 50
000
ASUS44 KMEG 250200
RWRTN
TENNESSEE HOURLY STATE WEATHER ROUNDUP
NATIONAL WEATHER SERVICE MEMPHIS TN
800 PM CST SAT JAN 24 2015

TNZ002-004-019-021-049-052-054-088>092-250300-
WEST TENNESSEE

CITY           SKY/WX    TMP DP  RH WIND       PRES   REMARKS
MEMPHIS INTL   CLEAR     46  33  60 SW6       29.93S
NWS MEMPHIS      N/A     46 N/A N/A MISG        N/A
JACKSON        CLEAR     41  27  57 S7        29.91S
DYERSBURG      CLEAR     45  23  42 S3        29.92R
UNION CITY     CLEAR     36  30  80 S5        29.87S WCI  32
PARIS          CLEAR     34  27  75 SW7       29.88S WCI  28
LEXINGTON      CLEAR     39  27  60 S5        29.90S
SAVANNAH       CLEAR     36  30  80 S3        29.94S
$$

TNZ008-025-027-028-033-062-065-066-250300-
NORTH MIDDLE TENNESSEE

CITY           SKY/WX    TMP DP  RH WIND       PRES   REMARKS
NASHVILLE      CLEAR     41  32  70 SW7       29.91R
CLARKSVILLE    CLEAR     43  29  57 SW3       29.88S
COOKEVILLE     CLEAR     30  28  93 CALM      29.90R
CROSSVILLE     CLEAR     36  28  73 SW6       29.89R WCI  31
$$

TNZ061-075-076-078-094-096-097-250300-
SOUTH MIDDLE TENNESSEE

CITY           SKY/WX    TMP DP  RH WIND       PRES   REMARKS
FAYETTEVILLE   CLEAR     36  28  75 MISG      29.93S
TULLAHOMA      CLEAR     32  28  86 CALM      29.93R
WINCHESTER     CLEAR     32  30  93 CALM      29.95R
SHELBYVILLE    CLEAR     36  32  87 S7        29.94S WCI  30
$$

TNZ017-018-042-046-047-250300-
NORTHEAST TENNESSEE

CITY           SKY/WX    TMP DP  RH WIND       PRES   REMARKS
TRI CITIES     CLOUDY    34  28  79 CALM      29.86R
ELIZABETHTON   CLOUDY    34  27  75 CALM      29.86R
$$

TNZ012-013-036-069-073-074-250300-
CENTRAL EAST TENNESSEE

CITY           SKY/WX    TMP DP  RH WIND       PRES   REMARKS
KNOXVILLE      CLEAR     36  26  67 SW7       29.92R WCI  30
OAK RIDGE      CLEAR     35  28  75 CALM      29.93R
GATLINBURG     CLEAR     36  25  64 SW8       29.91R WCI  29
$$

TNZ083-085-099-250300-
SOUTHEAST TENNESSEE

CITY           SKY/WX    TMP DP  RH WIND       PRES   REMARKS
CHATTANOOGA    CLEAR     41  29  62 S3        29.95R
$$

SKY/WX REPORTED AS FAIR MEANS FEW OR NO CLOUDS BELOW
12 THOUSAND FEET.




USA.gov is the U.S. government's official web portal to all federal, state and local government web resources and services.